[[{"header":{"parameterUnit":"m.s-1","parameterCategory":1,"la1":30.2991,"la2":30.254,"lo1":-89.0895,"lo2":-89.0444,"dy":0.0017,"dx":0.0017,"nx":28,"ny":28,"refTime":"2024-05-29T09:00:00:Z","depth":0,"parameterNumber":2,"parameterNumberName":"U-component_of_WINDS"},"data":[0,0,0,0,0,0,0,0,0,0,0,0,0,0,0,0,0,0,0,0,0,0,0,0,0,0,0,0,0,0,0,0,0,0,0,0,0,0,0,0,0,0,0,0,0,0,0,0,0,0,0,0,0,0,0,0,0,0,-3.1308,-3.1308,0,-3.1307,-3.1307,-3.1307,-3.1264,-3.1262,-3.1261,-3.126,-3.126,-3.1261,-3.1262,0,0,0,0,0,0,0,0,0,0,0,0,0,-3.1273,-3.1274,-3.1308,-3.1308,-3.1308,-3.1307,-3.1307,-3.1307,-3.1264,-3.1262,-3.1261,-3.126,-3.1259,-3.1261,-3.1262,0,0,0,0,0,0,0,0,0,0,0,0,0,-3.1282,-3.1274,-3.1308,-3.1286,-3.1284,-3.1307,-3.1307,-3.1307,-3.1264,-3.1262,-3.1261,-3.1259,-3.1259,-3.126,-3.1262,-3.1306,0,0,-3.1267,-3.1267,0,0,0,0,0,0,0,0,-3.1281,-3.1283,-3.1289,-3.1288,-3.1286,-3.1284,-3.1294,-3.1307,-3.1264,-3.1272,-3.126,-3.1258,-3.1269,-3.127,-3.1273,-3.1306,-3.1306,-3.1267,-3.1268,-3.1269,-3.1269,0,0,0,0,0,0,0,-3.1281,-3.1283,-3.1307,-3.1289,-3.1287,-3.1277,-3.1276,-3.1297,-3.128,-3.1271,-3.1268,-3.1268,-3.1268,-3.1272,-3.1273,-3.1306,-3.1267,-3.1268,-3.1269,-3.127,-3.1374,-3.1376,0,0,0,0,0,0,-3.1283,-3.1283,-3.1308,-3.1307,-3.1279,-3.1279,-3.1278,-3.1286,-3.128,-3.1277,-3.127,-3.1266,-3.127,-3.1271,-3.1273,-3.1323,-3.1269,-3.127,-3.1271,-3.1372,-3.1374,-3.1376,0,0,0,0,0,0,-3.1282,-3.1286,-3.1308,-3.1294,-3.1296,-3.1281,-3.129,-3.1287,-3.1291,-3.1279,-3.1276,-3.1277,-3.1269,-3.1271,-3.1298,-3.1322,-3.1271,-3.1272,-3.137,-3.1373,-3.1375,-3.1424,0,0,0,0,0,0,-3.1281,-3.1286,-3.1302,-3.1295,-3.1297,-3.1332,-3.1292,-3.1288,-3.1294,-3.1289,-3.1285,-3.1282,-3.1268,-3.1296,-3.1299,-3.1323,-3.1273,-3.1368,-3.1371,-3.1374,-3.142,-3.1428,-3.1434,0,0,0,0,0,-3.128,-3.1315,-3.1303,-3.1306,-3.1317,-3.1334,-3.1335,-3.1317,-3.1296,-3.1312,-3.1304,-3.1282,-3.132,-3.1299,-3.1303,-3.1327,-3.1366,-3.137,-3.1374,-3.1416,-3.1426,-3.1434,0,0,0,0,0,0,-3.1325,-3.1314,-3.13,-3.1334,-3.1335,-3.1326,-3.1346,-3.1328,-3.1336,-3.1331,-3.1309,-3.1309,-3.1339,-3.1336,-3.1314,-3.1369,-3.1339,-3.1344,-3.137,-3.1379,-3.1386,-3.1385,-3.1275,0,0,0,0,0,-3.1339,-3.1354,-3.1343,-3.1374,-3.1376,-3.1361,-3.1368,-3.1354,-3.1355,-3.1355,-3.1349,-3.1351,-3.1363,-3.1371,-3.1381,-3.142,-3.1418,-3.1439,-3.1446,-3.1453,-3.1457,-3.1476,-3.1485,-3.139,-3.139,-3.139,0,0,-3.1368,-3.1364,-3.1374,-3.1383,-3.1383,-3.1398,-3.1362,-3.138,-3.1391,-3.1358,-3.1383,-3.1379,-3.1379,-3.1412,-3.1427,-3.1411,-3.1483,-3.1458,-3.1463,-3.1463,-3.1482,-3.1491,-3.1499,-3.1392,-3.1392,-3.1391,0,0,-3.1428,-3.1427,-3.1452,-3.1452,-3.1452,-3.1442,-3.1449,-3.1443,-3.1439,-3.1464,-3.1439,-3.1453,-3.1474,-3.1475,-3.1478,-3.154,-3.152,-3.1545,-3.1582,-3.1602,-3.1609,-3.1616,-3.1637,-3.1645,-3.1549,-3.1549,-3.1549,0,-3.1463,-3.1486,-3.1467,-3.1487,-3.1492,-3.1463,-3.1488,-3.149,-3.1493,-3.1497,-3.148,-3.1506,-3.1504,-3.1536,-3.1552,-3.1556,-3.1562,-3.1544,-3.161,-3.1616,-3.1622,-3.1642,-3.165,-3.1552,-3.1552,-3.1551,-3.1551,0,-3.1529,-3.1545,-3.1566,-3.1569,-3.1577,-3.16,-3.1585,-3.1594,-3.1581,-3.1573,-3.1599,-3.1596,-3.1605,-3.1612,-3.1599,-3.1643,-3.1634,-3.1614,-3.1582,-3.1634,-3.1652,-3.166,-3.1556,-3.1555,-3.1554,-3.1554,0,0,-3.1615,-3.161,-3.1617,-3.1619,-3.1617,-3.1629,-3.1651,-3.166,-3.1668,-3.1672,-3.1689,-3.1709,-3.169,-3.1694,-3.1681,-3.1699,-3.1747,-3.1676,-3.1676,-3.1688,-3.1794,-3.1808,-3.1817,-3.1735,-3.1736,-3.1737,-3.1794,0,-3.1672,-3.1708,-3.1693,-3.173,-3.1745,-3.1719,-3.1737,-3.1739,-3.1733,-3.1744,-3.1737,-3.1751,-3.1726,-3.1728,-3.1744,-3.1738,-3.1768,-3.1734,-3.175,-3.175,-3.1749,-3.1827,-3.1842,-3.1896,-3.1801,-3.1802,-3.1803,0,-3.1743,-3.175,-3.1789,-3.1785,-3.179,-3.1807,-3.1814,-3.1826,-3.1827,-3.1821,-3.1827,-3.181,-3.1831,-3.1801,-3.183,-3.1807,-3.1813,-3.1811,-3.1813,-3.1812,-3.1779,-3.1827,-3.1912,-3.192,-3.1815,-3.1814,-3.1813,0,-3.1801,-3.182,-3.1845,-3.1848,-3.1844,-3.1856,-3.1855,-3.1855,-3.1861,-3.1868,-3.1872,-3.1881,-3.1886,-3.1894,-3.188,-3.186,-3.1911,-3.188,-3.1906,-3.1906,-3.1916,-3.1915,-3.2002,-3.1923,-3.1923,-3.1923,-3.1923,0,-3.1865,-3.189,-3.1871,-3.1887,-3.1914,-3.1896,-3.1924,-3.192,-3.192,-3.1934,-3.1913,-3.1927,-3.1909,-3.1922,-3.1912,-3.1936,-3.1939,-3.1935,-3.1932,-3.1936,-3.1936,-3.1938,-3.1934,-3.1925,-3.1925,-3.1924,-3.1924,0,-3.1933,-3.1922,-3.1948,-3.1943,-3.1942,-3.1962,-3.1957,-3.1971,-3.1964,-3.1983,-3.1987,-3.1975,-3.1989,-3.1977,-3.199,-3.1983,-3.2016,-3.2008,-3.2016,-3.2013,-3.2039,-3.2036,-3.2129,-3.214,-3.2055,-3.2056,-3.2057,0,-3.1974,-3.1993,-3.1989,-3.1997,-3.1998,-3.2011,-3.2018,-3.2002,-3.201,-3.2013,-3.2027,-3.2039,-3.2047,-3.2071,-3.2064,-3.2074,-3.2065,-3.2097,-3.2066,-3.207,-3.2064,-3.2063,-3.2064,-3.2103,-3.2104,-3.2104,-3.2105,0,-3.2048,-3.2042,-3.2052,-3.206,-3.2069,-3.2075,-3.2079,-3.2087,-3.2071,-3.2081,-3.2094,-3.2101,-3.2115,-3.2127,-3.2135,-3.2134,-3.2117,-3.2115,-3.2121,-3.2125,-3.2128,-3.2126,-3.2031,-3.2112,-3.2112,-3.2111,-3.2111,-3.211,-3.2103,-3.2118,-3.2118,-3.213,-3.2132,-3.2136,-3.2149,-3.2144,-3.2155,-3.2165,-3.2155,-3.2172,-3.2173,-3.2182,-3.2183,-3.2196,-3.2183,-3.2192,-3.2195,-3.2197,-3.22,-3.2127,-3.2198,-3.2198,-3.2197,-3.2197,-3.2197,0,-3.2175,-3.2173,-3.2185,-3.2192,-3.2201,-3.2185,-3.2189,-3.2198,-3.2213,-3.2215,-3.2224,-3.224,-3.2252,-3.2247,-3.2257,-3.2268,-3.226,-3.2271,-3.2269,-3.2269,-3.2212,-3.2205,-3.2277,-3.2277,-3.2277,-3.2277,-3.2277,-3.2277,-3.2213,-3.2237,-3.2231,-3.2256,-3.2255,-3.227,-3.2274,-3.2278,-3.228,-3.2299,-3.2308,-3.2305,-3.2304,-3.2314,-3.2325,-3.2323,-3.2327,-3.234,-3.2336,-3.2282,-3.2274,-3.2266,-3.2259,-3.2342,-3.2342,-3.2392,-3.2392,-3.2393]},{"header":{"parameterUnit":"m.s-1","parameterCategory":1,"la1":30.2991,"la2":30.254,"lo1":-89.0895,"lo2":-89.0444,"dy":0.0017,"dx":0.0017,"nx":28,"ny":28,"refTime":"2024-05-29T09:00:00:Z","depth":0,"parameterNumber":3,"parameterNumberName":"V-component_of_WINDS"},"data":[0,0,0,0,0,0,0,0,0,0,0,0,0,0,0,0,0,0,0,0,0,0,0,0,0,0,0,0,0,0,0,0,0,0,0,0,0,0,0,0,0,0,0,0,0,0,0,0,0,0,0,0,0,0,0,0,0,0,4.3182,4.3183,0,4.3233,4.3234,4.3234,4.322,4.3219,4.3218,4.3217,4.3265,4.3267,4.3269,0,0,0,0,0,0,0,0,0,0,0,0,0,4.307,4.3072,4.3182,4.3183,4.3184,4.3233,4.3234,4.3234,4.322,4.3219,4.3218,4.3217,4.3264,4.3267,4.3269,0,0,0,0,0,0,0,0,0,0,0,0,0,4.3119,4.3072,4.3182,4.3183,4.3183,4.3233,4.3234,4.3235,4.3221,4.3219,4.3217,4.3216,4.3263,4.3267,4.327,4.3321,0,0,4.328,4.3281,0,0,0,0,0,0,0,0,4.3116,4.3123,4.3182,4.3183,4.3183,4.3219,4.3212,4.3263,4.3221,4.3206,4.3217,4.3215,4.325,4.3255,4.3268,4.3323,4.3325,4.328,4.3282,4.3284,4.3285,0,0,0,0,0,0,0,4.3113,4.3121,4.3202,4.3183,4.3184,4.3179,4.3184,4.3221,4.3236,4.3207,4.3206,4.3213,4.3251,4.3264,4.3269,4.3326,4.328,4.3283,4.3285,4.3287,4.3427,4.3429,0,0,0,0,0,0,4.311,4.3118,4.3201,4.3204,4.3146,4.3182,4.3188,4.3209,4.3236,4.3238,4.3214,4.3212,4.3259,4.3265,4.327,4.3332,4.3284,4.3287,4.3289,4.3425,4.3427,4.3429,0,0,0,0,0,0,4.3107,4.3117,4.3199,4.3161,4.3171,4.3186,4.3209,4.3211,4.3224,4.3241,4.3243,4.3226,4.3258,4.3265,4.3309,4.3334,4.3288,4.3291,4.3423,4.3426,4.3428,4.3457,0,0,0,0,0,0,4.3104,4.3116,4.3136,4.3162,4.3173,4.3238,4.3211,4.3213,4.3231,4.3229,4.3252,4.3255,4.3258,4.3304,4.3312,4.3337,4.3294,4.3421,4.3424,4.3427,4.3453,4.346,4.3465,0,0,0,0,0,4.31,4.3141,4.3138,4.3148,4.3199,4.3239,4.3245,4.3249,4.3233,4.3253,4.3264,4.3254,4.333,4.3309,4.3318,4.3344,4.3419,4.3423,4.3427,4.3451,4.3459,4.3465,0,0,0,0,0,0,4.3117,4.3144,4.3141,4.3192,4.3213,4.3237,4.3262,4.3257,4.3283,4.3279,4.3282,4.3287,4.3332,4.3342,4.3318,4.3396,4.3372,4.3378,4.3387,4.3394,4.34,4.3396,4.3297,0,0,0,0,0,4.3127,4.3158,4.318,4.3223,4.3234,4.3246,4.3264,4.3265,4.3287,4.3296,4.331,4.333,4.3359,4.3377,4.3404,4.3455,4.346,4.3478,4.3484,4.3489,4.3494,4.3522,4.353,4.3442,4.3442,4.3442,0,0,4.3147,4.3166,4.3185,4.3227,4.3244,4.3276,4.3254,4.3288,4.3311,4.33,4.3343,4.3354,4.3377,4.3425,4.3446,4.3435,4.3519,4.3494,4.3497,4.35,4.3527,4.3535,4.3542,4.3445,4.3444,4.3444,0,0,4.32,4.3218,4.3256,4.3274,4.3301,4.3309,4.3318,4.3342,4.335,4.3393,4.3386,4.3413,4.3462,4.3479,4.3494,4.3555,4.3547,4.3564,4.3594,4.3622,4.3629,4.3635,4.3657,4.3664,4.3569,4.3569,4.3569,0,4.3221,4.327,4.3275,4.3311,4.3329,4.3323,4.3361,4.3378,4.3411,4.3424,4.3411,4.3473,4.3488,4.354,4.3555,4.3568,4.3578,4.3561,4.3628,4.3634,4.3639,4.366,4.3668,4.3571,4.3571,4.357,4.357,0,4.3295,4.3329,4.3356,4.3391,4.3412,4.3448,4.3459,4.348,4.348,4.3489,4.3533,4.3551,4.3582,4.3595,4.3594,4.3647,4.3639,4.3627,4.3603,4.365,4.3669,4.3677,4.3573,4.3573,4.3572,4.3572,0,0,4.3358,4.3397,4.3407,4.3423,4.3453,4.3478,4.3515,4.3547,4.3565,4.3588,4.3618,4.3661,4.3651,4.3668,4.3669,4.3693,4.3741,4.3679,4.3679,4.3689,4.38,4.3809,4.3818,4.3737,4.3738,4.3739,4.3798,0,4.3413,4.3479,4.3486,4.3543,4.3575,4.357,4.3602,4.3623,4.3633,4.366,4.367,4.3701,4.3685,4.3695,4.3719,4.373,4.3763,4.3726,4.3764,4.3765,4.3757,4.3828,4.3837,4.3892,4.3806,4.3807,4.3808,0,4.3486,4.3514,4.3576,4.3603,4.3616,4.3645,4.3675,4.3702,4.3725,4.3731,4.3751,4.375,4.3786,4.3762,4.3813,4.3787,4.3803,4.3811,4.3813,4.3816,4.3789,4.3832,4.3909,4.3917,4.382,4.3819,4.3818,0,4.3526,4.3579,4.3623,4.3637,4.3669,4.369,4.3704,4.3726,4.3746,4.3772,4.3784,4.3814,4.383,4.3853,4.3859,4.3841,4.3909,4.3886,4.3914,4.3914,4.3928,4.3927,4.4007,4.3939,4.3939,4.3939,4.3939,0,4.3587,4.3625,4.3642,4.3669,4.3711,4.3718,4.376,4.3772,4.3793,4.3822,4.3819,4.3846,4.3853,4.3881,4.3886,4.3927,4.3934,4.3939,4.394,4.3939,4.3939,4.3949,4.3945,4.3941,4.3941,4.394,4.394,0,4.3638,4.3651,4.3699,4.3727,4.3734,4.3764,4.3787,4.3813,4.3823,4.3859,4.3868,4.3884,4.3917,4.3926,4.3965,4.3968,4.4016,4.4014,4.4009,4.4008,4.4036,4.4034,4.4126,4.4138,4.4062,4.4063,4.4064,0,4.3676,4.3705,4.3737,4.3757,4.3772,4.3804,4.3824,4.3833,4.3854,4.3884,4.3906,4.3939,4.3966,4.4019,4.4032,4.4062,4.406,4.4091,4.4064,4.4063,4.406,4.4058,4.4061,4.4095,4.4096,4.4097,4.4097,0,4.3742,4.3747,4.3777,4.381,4.3835,4.3861,4.3885,4.3901,4.3913,4.3937,4.3972,4.3993,4.4033,4.4066,4.4097,4.411,4.4105,4.4106,4.4114,4.4113,4.4109,4.4111,4.4022,4.4103,4.4103,4.4102,4.4102,4.4102,4.3787,4.3813,4.384,4.3874,4.3894,4.3917,4.3943,4.3957,4.3987,4.4022,4.4025,4.4062,4.4086,4.4127,4.4142,4.4171,4.4162,4.4174,4.4176,4.4179,4.4182,4.4105,4.4177,4.4176,4.4176,4.4176,4.4176,0,4.3852,4.387,4.3901,4.3937,4.3963,4.3959,4.3986,4.4008,4.4042,4.4065,4.4093,4.4132,4.4164,4.4182,4.4213,4.4233,4.4232,4.4241,4.4239,4.4243,4.4188,4.4178,4.4242,4.4242,4.4242,4.4242,4.4242,4.4242,4.3889,4.3934,4.3942,4.3996,4.4013,4.4051,4.4067,4.4089,4.4108,4.4153,4.418,4.4192,4.4213,4.4247,4.4276,4.428,4.4291,4.4302,4.4305,4.4253,4.4246,4.424,4.423,4.4304,4.4304,4.4357,4.4357,4.4358]}]]